STARLINK-32290, 60359

Orbit data source: Space-Track

STARLINK-32290, 60359 is a payload satellite owned by SpaceX/Seattle (US) in LEO that was launched on Sun, 04 Aug 2024 UTC via an FALCON 9 launch vehicle from the Air Force Western Test Range (AFWTR). Payload-class satellites include a variety of spacecraft equipped with specific instruments for various scientific and technological missions. These include communications satellites like Starlink; space stations such as the ISS; scientific satellites like the Hubble; Earth observation satellites from companies like Planet Labs, Umbra, and HawkEye 360; GPS; miniature CubeSats for education and research; and military/defense satellites.

Loading next visibility...
Identifier
60359, 2024-138E
Orbit
LEO
Last TLE update
9 hours ago
Origin
Manufacturer
SpaceX/Seattle
Mission
Operational Commercial Communications
Bus & Motor
STARLINK V2M, Unknown motor
Mass
730 kg wet, ~700 kg dry
Launch date (UTC)
2024-08-04 (11 months ago)
Launch vehicle
FALCON 9
Launch site
Air Force Western Test Range (AFWTR)
Object type
Payload
Rocket body
Debris
Shape & HBR
Box + 2 Pan, 29 m
Radar Cross Section
33.884 m², Large (>1 m²)

Expand to show TLE details & history

TLE from 9 hours ago
0 STARLINK-32290
1 60359U 24138E   25182.03631766 -.00001361  00000-0 -33841-4 0  9997
2 60359  53.1607  38.8479 0000987  94.0868 266.0245 15.30203397 52022
Epoch: 2025-07-01T00:52Z
TLE epoch observation values (Epoch: 2025-07-01T00:52:17.845Z)
Latitude
-0.00009°
Longitude
106.43594°
Altitude
476.152 km
Speed
7.629 km/s
True Right ascension
02h 35m 23s
True Declination
0° 00' 00"
Sunlit
Object was in daylight at epoch
Visualization orbit readout
Latitude
-26.40431°
Longitude
-53.55144°
Altitude
483.311 km
Speed
7.624 km/s
Apparent Right ascension
13h 06m 36s
Apparent Declination
-44° 40' 14"
Sunlit
Object is in full shadow
Visualization observer readout
Local Sidereal Time
21:16:37
Azimuth
243.886° WSW
Elevation
-48.091°
Doppler factor
1
Orbital elements
Apogee altitude
476.138 km
Perigee altitude
474.785 km
Semi-major axis
6,853.598 km
Eccentricity
0.0001
Inclination
53.1607°
RAAN
38.8479°
Arg. of periapsis
94.0868°
True anomaly
Unknown
Mean anomaly
266.0245°
Eccentric anomaly
Unknown
Mean motion
3.8253 °/min
Orbital period
94.11 mins
BSTAR
-0.000033841
Loading maneuver chart data...
Loading SW <> Apogee altitude chart data...
Loading historical data...
Loading historical data...
Loading historical data...
Loading historical data...
Loading historical data...
Loading historical data...
Loading historical data...

STARLINK-32290 Visibility forecast

Observer location: undefined°, undefined°

Span
Click to sort rows by Start time (UTC) header in descending order
Start Az.
Max El. time (UTC)
Max El. Az.
Max El.
End time (UTC)
End Az.
6 mins2025-07-01 16:42:18.204Z204.565° SW2025-07-01 16:45:18.204Z144.181° SSE33.808°2025-07-01 16:48:18.204Z66.298° ENE
4 mins2025-07-01 18:22:18.204Z298.61° NW2025-07-01 18:23:18.204Z325.043° NNW24.288°2025-07-01 18:26:18.204Z27.894° NE
5 mins2025-07-01 23:18:18.204Z333.546° NNW2025-07-01 23:20:18.204Z27.605° NE32.11°2025-07-01 23:23:18.204Z100.106° ESE
4 mins2025-07-02 00:56:18.204Z272.538° WNW2025-07-02 00:58:18.204Z226.381° WSW22.866°2025-07-02 01:00:18.204Z183.308° SSW
|